"Period start","avg(HW err(1)/warn(2) (#))","avg(Visibility (m))","avg(Weather code (#))","avg(Precip intensity (mm/h))","min(HW err(1)/warn(2) (#))","max(HW err(1)/warn(2) (#))","std(HW err(1)/warn(2) (#))","med(HW err(1)/warn(2) (#))","min(Visibility (m))","max(Visibility (m))","std(Visibility (m))","med(Visibility (m))","min(Weather code (#))","max(Weather code (#))","std(Weather code (#))","med(Weather code (#))","min(Precip intensity (mm/h))","max(Precip intensity (mm/h))","std(Precip intensity (mm/h))","med(Precip intensity (mm/h))"
2014-05-20 00:00:00,2,46541,0,0.00,2,2,0,2,37206,50000,4340,48512,0,0,0,0,0.00,0.00,0.00,0.00
2014-05-20 00:10:00,2,49560,0,0.00,2,2,0,2,46154,50000,1147,50000,0,0,0,0,0.00,0.00,0.00,0.00
2014-05-20 00:20:00,2,44970,0,0.00,2,2,0,2,30559,50000,5957,46984,0,0,0,0,0.00,0.00,0.00,0.00
2014-05-20 00:30:00,2,49692,0,0.00,2,2,0,2,46916,50000,925,50000,0,0,0,0,0.00,0.00,0.00,0.00
2014-05-20 00:40:00,2,44659,0,0.00,2,2,0,2,35798,50000,4912,44463,0,0,0,0,0.00,0.00,0.00,0.00
2014-05-20 00:50:00,2,38220,0,0.00,2,2,0,2,29546,50000,6087,37986,0,0,0,0,0.00,0.00,0.00,0.00
2014-05-20 01:00:00,2,48711,0,0.00,2,2,0,2,43335,50000,2137,50000,0,0,0,0,0.00,0.00,0.00,0.00
2014-05-20 01:10:00,2,47718,0,0.00,2,2,0,2,39472,50000,3428,50000,0,0,0,0,0.00,0.00,0.00,0.00
2014-05-20 01:20:00,2,47306,0,0.00,2,2,0,2,37038,50000,4472,49886,0,0,0,0,0.00,0.00,0.00,0.00
2014-05-20 01:30:00,2,48930,0,0.00,2,2,0,2,45193,50000,1731,50000,0,0,0,0,0.00,0.00,0.00,0.00
2014-05-20 01:40:00,2,47422,0,0.00,2,2,0,2,38731,50000,3558,48623,0,0,0,0,0.00,0.00,0.00,0.00
2014-05-20 01:50:00,2,34701,0,0.00,2,2,0,2,24206,50000,7755,33406,0,0,0,0,0.00,0.00,0.00,0.00
2014-05-20 02:00:00,2,40758,0,0.00,2,2,0,2,31893,50000,6665,39667,0,0,0,0,0.00,0.00,0.00,0.00
2014-05-20 02:10:00,1,39166,0,0.00,0,2,1,2,31433,49875,5962,37685,0,0,0,0,0.00,0.00,0.00,0.00
2014-05-20 02:20:00,0,45443,0,0.00,0,2,1,0,38176,50000,4362,45835,0,0,0,0,0.00,0.00,0.00,0.00
2014-05-20 02:30:00,2,46110,0,0.00,2,2,0,2,37129,50000,4616,48252,0,0,0,0,0.00,0.00,0.00,0.00
2014-05-20 02:40:00,2,43869,0,0.00,2,2,0,2,32706,50000,6560,46386,0,0,0,0,0.00,0.00,0.00,0.00
2014-05-20 02:50:00,2,40596,0,0.00,2,2,0,2,33729,50000,5276,41006,0,0,0,0,0.00,0.00,0.00,0.00
2014-05-20 03:00:00,2,46766,0,0.00,2,2,0,2,35992,50000,4723,48863,0,0,0,0,0.00,0.00,0.00,0.00
2014-05-20 03:10:00,2,47772,0,0.00,2,2,0,2,37404,50000,3775,49588,0,0,0,0,0.00,0.00,0.00,0.00
2014-05-20 03:20:00,2,41135,0,0.00,2,2,0,2,30544,50000,5824,41602,0,0,0,0,0.00,0.00,0.00,0.00
2014-05-20 03:30:00,2,48686,0,0.00,2,2,0,2,41085,50000,2589,49676,0,0,0,0,0.00,0.00,0.00,0.00
2014-05-20 03:40:00,2,47466,0,0.00,2,2,0,2,41829,50000,3205,49172,0,0,0,0,0.00,0.00,0.00,0.00
2014-05-20 03:50:00,2,47542,0,0.00,2,2,0,2,40148,50000,3433,49512,0,0,0,0,0.00,0.00,0.00,0.00
2014-05-20 04:00:00,2,40954,0,0.00,2,2,0,2,31413,50000,5678,41017,0,0,0,0,0.00,0.00,0.00,0.00
2014-05-20 04:10:00,2,49281,0,0.00,2,2,0,2,46960,50000,982,49891,0,0,0,0,0.00,0.00,0.00,0.00
2014-05-20 04:20:00,2,47210,0,0.00,2,2,0,2,34604,50000,4463,48732,0,0,0,0,0.00,0.00,0.00,0.00
2014-05-20 04:30:00,2,43138,0,0.00,2,2,0,2,37350,50000,5569,39602,0,0,0,0,0.00,0.00,0.00,0.00
2014-05-20 04:40:00,2,47592,0,0.00,2,2,0,2,37894,50000,4014,50000,0,0,0,0,0.00,0.00,0.00,0.00
2014-05-20 04:50:00,1,45752,0,0.00,0,2,1,0,35557,50000,4661,47475,0,0,0,0,0.00,0.00,0.00,0.00
2014-05-20 05:00:00,1,42588,0,0.00,0,2,1,0,34128,49458,4925,43525,0,0,0,0,0.00,0.00,0.00,0.00
2014-05-20 05:10:00,0,45358,0,0.00,0,2,1,0,38560,50000,4593,46721,0,0,0,0,0.00,0.00,0.00,0.00
2014-05-20 05:20:00,1,47947,0,0.00,0,2,1,1,43738,50000,2163,49170,0,0,0,0,0.00,0.00,0.00,0.00
2014-05-20 05:30:00,2,46280,0,0.00,0,2,1,2,36748,50000,4431,48720,0,0,0,0,0.00,0.00,0.00,0.00
2014-05-20 05:40:00,2,45255,0,0.00,2,2,0,2,34332,50000,5476,47300,0,0,0,0,0.00,0.00,0.00,0.00
2014-05-20 05:50:00,1,47934,0,0.00,0,2,1,0,42767,50000,2293,48554,0,0,0,0,0.00,0.00,0.00,0.00
2014-05-20 06:00:00,1,49356,0,0.00,0,2,1,2,43559,50000,1932,50000,0,0,0,0,0.00,0.00,0.00,0.00
2014-05-20 06:10:00,1,47204,0,0.00,0,2,1,0,38732,50000,3930,50000,0,0,0,0,0.00,0.00,0.00,0.00
2014-05-20 06:20:00,0,46702,0,0.00,0,0,0,0,38318,50000,4477,50000,0,0,0,0,0.00,0.00,0.00,0.00
2014-05-20 06:30:00,0,44701,0,0.00,0,0,0,0,35369,50000,6308,49435,0,0,0,0,0.00,0.00,0.00,0.00
2014-05-20 06:40:00,0,48332,0,0.00,0,0,0,0,41884,50000,2318,48686,0,0,0,0,0.00,0.00,0.00,0.00
2014-05-20 06:50:00,0,48484,0,0.00,0,0,0,0,42635,50000,2412,49807,0,0,0,0,0.00,0.00,0.00,0.00
2014-05-20 07:00:00,0,49084,0,0.00,0,0,0,0,44721,50000,1655,50000,0,0,0,0,0.00,0.00,0.00,0.00
2014-05-20 07:10:00,0,48944,0,0.00,0,0,0,0,44825,50000,1739,50000,0,0,0,0,0.00,0.00,0.00,0.00
2014-05-20 07:20:00,0,47210,0,0.00,0,0,0,0,40646,50000,3397,49456,0,0,0,0,0.00,0.00,0.00,0.00
2014-05-20 07:30:00,1,44187,0,0.00,0,2,1,0,32253,50000,5333,46717,0,0,0,0,0.00,0.00,0.00,0.00
2014-05-20 07:40:00,2,44751,0,0.00,2,2,0,2,37298,50000,4362,45626,0,0,0,0,0.00,0.00,0.00,0.00
2014-05-20 07:50:00,0,48958,0,0.00,0,0,0,0,46002,50000,1599,50000,0,0,0,0,0.00,0.00,0.00,0.00
2014-05-20 08:00:00,0,46009,0,0.00,0,0,0,0,35577,50000,4498,47391,0,0,0,0,0.00,0.00,0.00,0.00
2014-05-20 08:10:00,0,48646,0,0.00,0,0,0,0,45398,50000,1738,49578,0,0,0,0,0.00,0.00,0.00,0.00
2014-05-20 08:20:00,0,48412,0,0.00,0,0,0,0,43230,50000,2636,50000,0,0,0,0,0.00,0.00,0.00,0.00
2014-05-20 08:30:00,0,48090,0,0.00,0,0,0,0,41626,50000,2791,49640,0,0,0,0,0.00,0.00,0.00,0.00
2014-05-20 08:40:00,0,48074,0,0.00,0,0,0,0,42576,50000,2665,50000,0,0,0,0,0.00,0.00,0.00,0.00
2014-05-20 08:50:00,0,45395,0,0.00,0,0,0,0,41863,50000,3070,44447,0,0,0,0,0.00,0.00,0.00,0.00
2014-05-20 09:00:00,0,47806,0,0.00,0,0,0,0,43970,50000,2476,49062,0,0,0,0,0.00,0.00,0.00,0.00
2014-05-20 09:10:00,0,47756,0,0.00,0,0,0,0,38982,50000,3640,49564,0,0,0,0,0.00,0.00,0.00,0.00
2014-05-20 09:20:00,0,45385,0,0.00,0,0,0,0,31007,50000,5930,48384,0,0,0,0,0.00,0.00,0.00,0.00
2014-05-20 09:30:00,0,48650,0,0.00,0,0,0,0,45510,50000,1796,49944,0,0,0,0,0.00,0.00,0.00,0.00
2014-05-20 09:40:00,0,49290,0,0.00,0,0,0,0,46448,50000,1216,50000,0,0,0,0,0.00,0.00,0.00,0.00
2014-05-20 09:50:00,0,48604,0,0.00,0,0,0,0,43528,50000,1968,49550,0,0,0,0,0.00,0.00,0.00,0.00
2014-05-20 10:00:00,0,49215,0,0.00,0,0,0,0,46000,50000,1541,50000,0,0,0,0,0.00,0.00,0.00,0.00
2014-05-20 10:10:00,0,49651,0,0.00,0,0,0,0,47187,50000,832,50000,0,0,0,0,0.00,0.00,0.00,0.00
2014-05-20 10:20:00,0,47953,0,0.00,0,0,0,0,41177,50000,3006,49442,0,0,0,0,0.00,0.00,0.00,0.00
2014-05-20 10:30:00,0,49768,0,0.00,0,0,0,0,47681,50000,696,50000,0,0,0,0,0.00,0.00,0.00,0.00
2014-05-20 10:40:00,0,48968,0,0.00,0,0,0,0,45918,50000,1474,50000,0,0,0,0,0.00,0.00,0.00,0.00
2014-05-20 10:50:00,0,48429,0,0.00,0,0,0,0,41572,50000,2923,49940,0,0,0,0,0.00,0.00,0.00,0.00
2014-05-20 11:00:00,0,47818,0,0.00,0,0,0,0,43574,50000,2129,47922,0,0,0,0,0.00,0.00,0.00,0.00
2014-05-20 11:10:00,0,49188,0,0.00,0,0,0,0,43241,50000,2003,50000,0,0,0,0,0.00,0.00,0.00,0.00
2014-05-20 11:20:00,0,49164,0,0.00,0,0,0,0,46411,50000,1315,50000,0,0,0,0,0.00,0.00,0.00,0.00
2014-05-20 11:30:00,0,49194,0,0.00,0,0,0,0,45475,50000,1350,50000,0,0,0,0,0.00,0.00,0.00,0.00
2014-05-20 11:40:00,0,49298,0,0.00,0,0,0,0,45988,50000,1324,50000,0,0,0,0,0.00,0.00,0.00,0.00
2014-05-20 11:50:00,0,49895,0,0.00,0,0,0,0,48953,50000,314,50000,0,0,0,0,0.00,0.00,0.00,0.00
2014-05-20 12:00:00,0,48981,0,0.00,0,0,0,0,44462,50000,2048,50000,0,0,0,0,0.00,0.00,0.00,0.00
2014-05-20 12:10:00,0,49125,0,0.00,0,0,0,0,44578,50000,1630,50000,0,0,0,0,0.00,0.00,0.00,0.00
2014-05-20 12:20:00,0,49688,0,0.00,0,0,0,0,47371,50000,786,50000,0,0,0,0,0.00,0.00,0.00,0.00
2014-05-20 12:30:00,0,49914,0,0.00,0,0,0,0,49259,50000,221,50000,0,0,0,0,0.00,0.00,0.00,0.00
2014-05-20 12:40:00,0,50000,0,0.00,0,0,0,0,50000,50000,0,50000,0,0,0,0,0.00,0.00,0.00,0.00
2014-05-20 12:50:00,0,49993,0,0.00,0,0,0,0,49931,50000,21,50000,0,0,0,0,0.00,0.00,0.00,0.00
2014-05-20 13:00:00,0,49863,0,0.00,0,0,0,0,48633,50000,410,50000,0,0,0,0,0.00,0.00,0.00,0.00
2014-05-20 13:10:00,0,50000,0,0.00,0,0,0,0,50000,50000,0,50000,0,0,0,0,0.00,0.00,0.00,0.00
2014-05-20 13:20:00,0,49762,0,0.00,0,0,0,0,47615,50000,716,50000,0,0,0,0,0.00,0.00,0.00,0.00
2014-05-20 13:30:00,0,50000,0,0.00,0,0,0,0,50000,50000,0,50000,0,0,0,0,0.00,0.00,0.00,0.00
2014-05-20 13:40:00,0,49812,0,0.00,0,0,0,0,48121,50000,564,50000,0,0,0,0,0.00,0.00,0.00,0.00
2014-05-20 13:50:00,0,49359,0,0.00,0,0,0,0,44768,50000,1570,50000,0,0,0,0,0.00,0.00,0.00,0.00
2014-05-20 14:00:00,0,49589,0,0.00,0,0,0,0,45887,50000,1234,50000,0,0,0,0,0.00,0.00,0.00,0.00
2014-05-20 14:10:00,0,50000,0,0.00,0,0,0,0,50000,50000,0,50000,0,0,0,0,0.00,0.00,0.00,0.00
2014-05-20 14:20:00,0,50000,0,0.00,0,0,0,0,50000,50000,0,50000,0,0,0,0,0.00,0.00,0.00,0.00
2014-05-20 14:30:00,0,50000,0,0.00,0,0,0,0,50000,50000,0,50000,0,0,0,0,0.00,0.00,0.00,0.00
2014-05-20 14:40:00,1,50000,0,0.00,0,2,1,0,50000,50000,0,50000,0,0,0,0,0.00,0.00,0.00,0.00
2014-05-20 14:50:00,2,50000,0,0.00,2,2,0,2,50000,50000,0,50000,0,0,0,0,0.00,0.00,0.00,0.00
2014-05-20 15:00:00,1,50000,0,0.00,0,2,1,1,50000,50000,0,50000,0,0,0,0,0.00,0.00,0.00,0.00
2014-05-20 15:10:00,0,50000,0,0.00,0,0,0,0,50000,50000,0,50000,0,0,0,0,0.00,0.00,0.00,0.00
2014-05-20 15:20:00,0,50000,0,0.00,0,0,0,0,50000,50000,0,50000,0,0,0,0,0.00,0.00,0.00,0.00
2014-05-20 15:30:00,0,50000,0,0.00,0,0,0,0,50000,50000,0,50000,0,0,0,0,0.00,0.00,0.00,0.00
2014-05-20 15:40:00,0,50000,0,0.00,0,0,0,0,50000,50000,0,50000,0,0,0,0,0.00,0.00,0.00,0.00
2014-05-20 15:50:00,0,50000,0,0.00,0,2,1,0,50000,50000,0,50000,0,0,0,0,0.00,0.00,0.00,0.00
2014-05-20 16:00:00,1,50000,0,0.00,0,2,1,2,50000,50000,0,50000,0,0,0,0,0.00,0.00,0.00,0.00
2014-05-20 16:10:00,0,50000,0,0.00,0,0,0,0,50000,50000,0,50000,0,0,0,0,0.00,0.00,0.00,0.00
2014-05-20 16:20:00,0,50000,0,0.00,0,0,0,0,50000,50000,0,50000,0,0,0,0,0.00,0.00,0.00,0.00
2014-05-20 16:30:00,0,50000,0,0.00,0,0,0,0,50000,50000,0,50000,0,0,0,0,0.00,0.00,0.00,0.00
2014-05-20 16:40:00,0,50000,0,0.00,0,0,0,0,50000,50000,0,50000,0,0,0,0,0.00,0.00,0.00,0.00
2014-05-20 16:50:00,0,49984,0,0.00,0,0,0,0,49845,50000,46,50000,0,0,0,0,0.00,0.00,0.00,0.00
2014-05-20 17:00:00,0,50000,0,0.00,0,0,0,0,50000,50000,0,50000,0,0,0,0,0.00,0.00,0.00,0.00
2014-05-20 17:10:00,0,50000,0,0.00,0,0,0,0,50000,50000,0,50000,0,0,0,0,0.00,0.00,0.00,0.00
2014-05-20 17:20:00,0,50000,0,0.00,0,0,0,0,50000,50000,0,50000,0,0,0,0,0.00,0.00,0.00,0.00
2014-05-20 17:30:00,0,49756,0,0.00,0,0,0,0,47562,50000,731,50000,0,0,0,0,0.00,0.00,0.00,0.00
2014-05-20 17:40:00,0,49942,0,0.00,0,0,0,0,49418,50000,175,50000,0,0,0,0,0.00,0.00,0.00,0.00
2014-05-20 17:50:00,0,50000,0,0.00,0,0,0,0,50000,50000,0,50000,0,0,0,0,0.00,0.00,0.00,0.00
2014-05-20 18:00:00,2,50000,0,0.00,2,2,0,2,50000,50000,0,50000,0,0,0,0,0.00,0.00,0.00,0.00
2014-05-20 18:10:00,2,49953,0,0.00,2,2,0,2,49532,50000,140,50000,0,0,0,0,0.00,0.00,0.00,0.00
2014-05-20 18:20:00,2,50000,0,0.00,2,2,0,2,50000,50000,0,50000,0,0,0,0,0.00,0.00,0.00,0.00
2014-05-20 18:30:00,2,50000,0,0.00,2,2,0,2,50000,50000,0,50000,0,0,0,0,0.00,0.00,0.00,0.00
2014-05-20 18:40:00,2,49990,0,0.00,2,2,0,2,49902,50000,29,50000,0,0,0,0,0.00,0.00,0.00,0.00
2014-05-20 18:50:00,1,49811,0,0.00,0,2,1,1,48109,50000,567,50000,0,0,0,0,0.00,0.00,0.00,0.00
2014-05-20 19:00:00,0,50000,0,0.00,0,0,0,0,50000,50000,0,50000,0,0,0,0,0.00,0.00,0.00,0.00
2014-05-20 19:10:00,0,49875,0,0.00,0,0,0,0,49348,50000,212,50000,0,0,0,0,0.00,0.00,0.00,0.00
2014-05-20 19:20:00,0,49929,0,0.00,0,0,0,0,49293,50000,212,50000,0,0,0,0,0.00,0.00,0.00,0.00
2014-05-20 19:30:00,0,49993,0,0.00,0,0,0,0,49926,50000,22,50000,0,0,0,0,0.00,0.00,0.00,0.00
2014-05-20 19:40:00,0,50000,0,0.00,0,0,0,0,50000,50000,0,50000,0,0,0,0,0.00,0.00,0.00,0.00
2014-05-20 19:50:00,0,49982,0,0.00,0,0,0,0,49818,50000,55,50000,0,0,0,0,0.00,0.00,0.00,0.00
2014-05-20 20:00:00,0,48781,0,0.00,0,2,1,0,43990,50000,2233,50000,0,0,0,0,0.00,0.00,0.00,0.00
2014-05-20 20:10:00,2,47428,0,0.00,0,2,1,2,41238,50000,3264,48585,0,0,0,0,0.00,0.00,0.00,0.00
2014-05-20 20:20:00,2,48664,0,0.00,2,2,0,2,44311,50000,1927,50000,0,0,0,0,0.00,0.00,0.00,0.00
2014-05-20 20:30:00,2,50000,0,0.00,2,2,0,2,50000,50000,0,50000,0,0,0,0,0.00,0.00,0.00,0.00
2014-05-20 20:40:00,2,50000,0,0.00,2,2,0,2,50000,50000,0,50000,0,0,0,0,0.00,0.00,0.00,0.00
2014-05-20 20:50:00,2,49640,0,0.00,2,2,0,2,47654,50000,734,50000,0,0,0,0,0.00,0.00,0.00,0.00
2014-05-20 21:00:00,0,49930,0,0.00,0,2,1,0,49387,50000,183,50000,0,0,0,0,0.00,0.00,0.00,0.00
2014-05-20 21:10:00,2,49467,0,0.00,2,2,0,2,48139,50000,753,49913,0,0,0,0,0.00,0.00,0.00,0.00
2014-05-20 21:20:00,2,48126,0,0.00,2,2,0,2,42256,50000,2493,49412,0,0,0,0,0.00,0.00,0.00,0.00
2014-05-20 21:30:00,2,49397,0,0.00,2,2,0,2,47871,50000,861,50000,0,0,0,0,0.00,0.00,0.00,0.00
2014-05-20 21:40:00,2,47989,0,0.00,2,2,0,2,40354,50000,3328,49756,0,0,0,0,0.00,0.00,0.00,0.00
2014-05-20 21:50:00,2,46893,0,0.00,2,2,0,2,41186,50000,3308,47833,0,0,0,0,0.00,0.00,0.00,0.00
2014-05-20 22:00:00,2,49563,0,0.00,2,2,0,2,47402,50000,893,50000,0,0,0,0,0.00,0.00,0.00,0.00
2014-05-20 22:10:00,2,49157,0,0.00,2,2,0,2,45284,50000,1504,50000,0,0,0,0,0.00,0.00,0.00,0.00
2014-05-20 22:20:00,2,45198,0,0.00,0,2,1,2,34977,50000,4884,46372,0,0,0,0,0.00,0.00,0.00,0.00
2014-05-20 22:30:00,2,47263,0,0.00,2,2,0,2,40024,50000,3502,49015,0,0,0,0,0.00,0.00,0.00,0.00
2014-05-20 22:40:00,2,47307,0,0.00,2,2,0,2,39947,50000,3544,49288,0,0,0,0,0.00,0.00,0.00,0.00
2014-05-20 22:50:00,2,47037,0,0.00,2,2,0,2,38588,50000,3949,49366,0,0,0,0,0.00,0.00,0.00,0.00
2014-05-20 23:00:00,2,41904,0,0.00,2,2,0,2,31180,50000,7331,43848,0,0,0,0,0.00,0.00,0.00,0.00
2014-05-20 23:10:00,2,44553,0,0.00,2,2,0,2,35172,50000,4094,45586,0,0,0,0,0.00,0.00,0.00,0.00
2014-05-20 23:20:00,2,43252,0,0.00,2,2,0,2,32566,50000,6771,44504,0,0,0,0,0.00,0.00,0.00,0.00
2014-05-20 23:30:00,2,44789,0,0.00,2,2,0,2,29299,50000,5972,47359,0,0,0,0,0.00,0.00,0.00,0.00
2014-05-20 23:40:00,2,47830,0,0.00,2,2,0,2,40665,50000,3016,49209,0,0,0,0,0.00,0.00,0.00,0.00
2014-05-20 23:50:00,2,38842,0,0.00,2,2,0,2,21759,50000,8975,40867,0,0,0,0,0.00,0.00,0.00,0.00
